| time (UTC) | temp F | wind direction | speed knots | gust knots | rain 1hr in | rain 24hr in | rain mn in | humidity % | barometer mb |
| 20260507054556 | 53 | 246 | 0.0 | 3.5 | 0.00 | 0.56 | 0.52 | 63 | 1013.4 |
| 20260507053122 | 53 | 267 | 0.0 | 2.6 | 0.00 | 0.56 | 0.52 | 64 | 1013.4 |
| 20260507051555 | 53 | 285 | 0.0 | 5.2 | 0.00 | 0.56 | 0.52 | 64 | 1013.5 |
| 20260507050050 | 53 | 243 | 0.0 | 0.9 | 0.00 | 0.56 | 0.52 | 65 | 1013.5 |
| 20260507044601 | 53 | 263 | 0.0 | 2.6 | 0.00 | 0.56 | 0.52 | 66 | 1013.7 |
| 20260507043051 | 53 | 285 | 0.0 | 1.7 | 0.00 | 0.56 | 0.52 | 66 | 1013.5 |
| 20260507041551 | 54 | 272 | 0.9 | 5.2 | 0.00 | 0.56 | 0.52 | 65 | 1013.4 |
| 20260507040047 | 54 | 279 | 0.0 | 5.2 | 0.00 | 0.56 | 0.52 | 66 | 1013.4 |
| 20260507034546 | 54 | 295 | 1.7 | 6.1 | 0.00 | 0.56 | 0.52 | 64 | 1013.5 |
| 20260507033058 | 54 | 275 | 1.7 | 5.2 | 0.00 | 0.56 | 0.52 | 64 | 1013.6 |
| 20260507031555 | 55 | 260 | 1.7 | 3.5 | 0.00 | 0.56 | 0.52 | 63 | 1013.6 |
| 20260507030100 | 55 | 252 | 0.0 | 5.2 | 0.00 | 0.56 | 0.52 | 64 | 1013.5 |
| 20260507024559 | 55 | 268 | 1.7 | 3.5 | 0.00 | 0.56 | 0.52 | 63 | 1013.3 |
| 20260507023035 | 55 | 300 | 1.7 | 6.1 | 0.00 | 0.56 | 0.52 | 64 | 1013.4 |
| 20260507021536 | 56 | 326 | 3.5 | 7.8 | 0.00 | 0.56 | 0.52 | 63 | 1013.0 |
| 20260507020030 | 56 | 276 | 2.6 | 7.8 | 0.00 | 0.56 | 0.52 | 65 | 1012.6 |
| 20260507014540 | 56 | 312 | 3.5 | 8.7 | 0.00 | 0.56 | 0.52 | 66 | 1012.6 |
| 20260507013035 | 57 | 300 | 4.3 | 8.7 | 0.00 | 0.56 | 0.52 | 69 | 1012.4 |
| 20260507011532 | 57 | 239 | 0.0 | 0.0 | 0.00 | 0.56 | 0.52 | 73 | 1012.2 |
| 20260507010022 | 57 | 239 | 0.0 | 0.0 | 0.00 | 0.56 | 0.52 | 73 | 1011.7 |
| 20260507004520 | 57 | 239 | 0.0 | 0.0 | 0.00 | 0.56 | 0.52 | 76 | 1011.3 |
| 20260507003019 | 57 | 270 | 0.0 | 0.0 | 0.00 | 0.56 | 0.52 | 78 | 1011.3 |
| 20260507001525 | 58 | 270 | 0.0 | 0.0 | 0.00 | 0.56 | 0.52 | 74 | 1011.2 |
| 20260507000015 | 58 | 270 | 0.0 | 0.0 | 0.00 | 0.56 | 0.52 | 75 | 1011.0 |
| 20260506234514 | 58 | 270 | 0.0 | 0.0 | 0.00 | 0.56 | 0.52 | 75 | 1010.9 |
| 20260506233015 | 59 | 270 | 0.0 | 0.0 | 0.00 | 0.56 | 0.52 | 74 | 1010.6 |
| 20260506231513 | 60 | 270 | 0.0 | 0.0 | 0.00 | 0.56 | 0.52 | 68 | 1011.3 |
| 20260506230010 | 60 | 270 | 0.0 | 0.0 | 0.00 | 0.56 | 0.52 | 67 | 1011.0 |
| 20260506224510 | 60 | 270 | 0.0 | 1.7 | 0.00 | 0.56 | 0.52 | 66 | 1011.2 |
| 20260506223015 | 60 | 272 | 0.0 | 1.7 | 0.00 | 0.56 | 0.52 | 68 | 1011.2 |
| 20260506221508 | 60 | 270 | 0.0 | 2.6 | 0.00 | 0.56 | 0.52 | 67 | 1011.2 |
| 20260506220004 | 61 | 316 | 0.0 | 4.3 | 0.00 | 0.56 | 0.52 | 66 | 1010.9 |
| 20260506214503 | 60 | 276 | 0.9 | 4.3 | 0.00 | 0.56 | 0.52 | 67 | 1010.5 |
| 20260506213002 | 60 | 279 | 0.9 | 3.5 | 0.00 | 0.56 | 0.52 | 69 | 1010.5 |
| 20260506211501 | 60 | 278 | 1.7 | 4.3 | 0.00 | 0.56 | 0.52 | 68 | 1010.7 |
| 20260506210058 | 60 | 324 | 0.9 | 4.3 | 0.00 | 0.56 | 0.52 | 69 | 1010.5 |
| 20260506204600 | 61 | 279 | 0.0 | 3.5 | 0.00 | 0.56 | 0.52 | 68 | 1010.4 |
| 20260506203055 | 61 | 296 | 1.7 | 4.3 | 0.00 | 0.56 | 0.52 | 69 | 1010.2 |
| 20260506201556 | 60 | 270 | 0.0 | 5.2 | 0.00 | 0.56 | 0.52 | 69 | 1010.0 |
| 20260506200051 | 60 | 285 | 2.6 | 6.1 | 0.00 | 0.56 | 0.52 | 70 | 1010.2 |
| 20260506194549 | 60 | 287 | 0.9 | 2.6 | 0.00 | 0.56 | 0.52 | 73 | 1010.1 |
| 20260506193046 | 59 | 253 | 0.0 | 2.6 | 0.00 | 0.56 | 0.52 | 74 | 1010.2 |
| 20260506191547 | 59 | 306 | 2.6 | 6.1 | 0.00 | 0.56 | 0.52 | 75 | 1010.2 |
| 20260506190044 | 58 | 263 | 3.5 | 7.8 | 0.00 | 0.56 | 0.52 | 76 | 1010.3 |
| 20260506184548 | 58 | 298 | 3.5 | 7.0 | 0.00 | 0.56 | 0.52 | 76 | 1010.3 |
| 20260506183041 | 58 | 347 | 1.7 | 5.2 | 0.00 | 0.56 | 0.52 | 78 | 1010.3 |
| 20260506181540 | 58 | 21 | 3.5 | 7.8 | 0.00 | 0.56 | 0.52 | 78 | 1010.3 |
| 20260506180037 | 57 | 296 | 2.6 | 5.2 | 0.00 | 0.56 | 0.52 | 80 | 1010.4 |
| 20260506174536 | 57 | 341 | 4.3 | 7.8 | 0.00 | 0.56 | 0.52 | 82 | 1010.4 |
| 20260506173042 | 56 | 332 | 1.7 | 5.2 | 0.00 | 0.56 | 0.52 | 90 | 1010.6 |
| 20260506171532 | 54 | 292 | 1.7 | 8.7 | 0.00 | 0.56 | 0.52 | 96 | 1010.4 |
| 20260506170034 | 53 | 292 | 1.7 | 5.2 | 0.00 | 0.56 | 0.52 | 97 | 1010.5 |
| 20260506164501 | 52 | 259 | 0.0 | 6.1 | 0.00 | 0.56 | 0.52 | 97 | 1010.6 |
| 20260506163107 | 51 | 298 | 2.6 | 8.7 | 0.00 | 0.56 | 0.52 | 97 | 1010.6 |
| 20260506161634 | 50 | 303 | 3.5 | 7.0 | 0.00 | 0.56 | 0.52 | 97 | 1010.7 |
| 20260506160103 | 50 | 336 | 3.5 | 7.8 | 0.00 | 0.56 | 0.52 | 98 | 1010.5 |
| 20260506154554 | 50 | 329 | 5.2 | 9.6 | 0.00 | 0.56 | 0.52 | 97 | 1010.1 |
| 20260506153056 | 50 | 276 | 1.7 | 8.7 | 0.00 | 0.56 | 0.52 | 98 | 1009.8 |
| 20260506151540 | 50 | 289 | 2.6 | 5.2 | 0.00 | 0.56 | 0.52 | 98 | 1009.4 |
| 20260506150037 | 49 | 260 | 0.0 | 6.1 | 0.00 | 0.56 | 0.52 | 97 | 1009.4 |
| 20260506144539 | 49 | 284 | 2.6 | 7.0 | 0.01 | 0.56 | 0.52 | 97 | 1008.9 |
| 20260506141532 | 49 | 266 | 2.6 | 8.7 | 0.03 | 0.56 | 0.52 | 97 | 1008.8 |
| 20260506140028 | 50 | 282 | 1.7 | 13.0 | 0.03 | 0.56 | 0.52 | 97 | 1008.5 |
| 20260506134524 | 51 | 303 | 6.1 | 12.2 | 0.02 | 0.56 | 0.51 | 96 | 1007.9 |
| 20260506131528 | 58 | 269 | 2.6 | 9.6 | 0.00 | 0.54 | 0.49 | 98 | 1006.6 |
| 20260506130016 | 58 | 227 | 0.0 | 3.5 | 0.00 | 0.54 | 0.49 | 98 | 1006.4 |
| 20260506124515 | 58 | 235 | 0.0 | 2.6 | 0.00 | 0.54 | 0.49 | 98 | 1006.2 |
| 20260506121522 | 58 | 232 | 0.0 | 0.0 | 0.01 | 0.54 | 0.49 | 98 | 1005.8 |
| 20260506120021 | 57 | 189 | 0.0 | 0.0 | 0.01 | 0.54 | 0.49 | 98 | 1005.6 |
| 20260506114520 | 57 | 251 | 0.0 | 0.0 | 0.01 | 0.54 | 0.49 | 98 | 1005.9 |
| 20260506113019 | 57 | 251 | 0.0 | 4.3 | 0.02 | 0.54 | 0.49 | 97 | 1005.5 |
| 20260506111516 | 57 | 152 | 1.7 | 3.5 | 0.03 | 0.53 | 0.48 | 97 | 1005.4 |
| 20260506110020 | 57 | 196 | 2.6 | 5.2 | 0.06 | 0.53 | 0.48 | 97 | 1005.4 |
| 20260506104514 | 57 | 167 | 1.7 | 5.2 | 0.08 | 0.53 | 0.48 | 97 | 1005.0 |
| 20260506103014 | 57 | 202 | 0.9 | 5.2 | 0.08 | 0.52 | 0.47 | 97 | 1005.1 |
| 20260506101553 | 57 | 177 | 1.7 | 4.3 | 0.08 | 0.50 | 0.45 | 97 | 1005.0 |
| 20260506100100 | 57 | 234 | 0.0 | 0.0 | 0.06 | 0.47 | 0.42 | 97 | 1005.2 |
| 20260506094538 | 57 | 234 | 0.0 | 0.0 | 0.08 | 0.45 | 0.40 | 97 | 1005.5 |
| 20260506093043 | 57 | 234 | 0.0 | 0.0 | 0.09 | 0.44 | 0.39 | 97 | 1005.5 |
| 20260506091538 | 57 | 234 | 0.0 | 0.0 | 0.11 | 0.42 | 0.37 | 97 | 1005.4 |
| 20260506090035 | 57 | 234 | 0.0 | 0.0 | 0.16 | 0.41 | 0.36 | 96 | 1005.4 |
| 20260506084505 | 57 | 234 | 0.0 | 0.0 | 0.20 | 0.37 | 0.32 | 96 | 1005.6 |
| 20260506083004 | 57 | 234 | 0.0 | 0.0 | 0.25 | 0.35 | 0.30 | 95 | 1005.6 |
| 20260506081601 | 57 | 191 | 0.9 | 4.3 | 0.27 | 0.31 | 0.26 | 95 | 1005.5 |
| 20260506073049 | 59 | 215 | 0.9 | 12.2 | 0.09 | 0.10 | 0.05 | 89 | 1006.2 |
| 20260506071544 | 59 | 229 | 0.9 | 5.2 | 0.03 | 0.04 | 0.04 | 87 | 1005.5 |
| 20260506061535 | 59 | 205 | 0.0 | 0.0 | 0.00 | 0.01 | 0.01 | 91 | 1005.1 |